Wind_Speed
9 8 5 2 2 2 6 8 6 5 4 4 7 6 9 6 5 4 17 13 17 20 18 16 13 11 11 11 11 10 10 9 9 10 11 10 11 11 12 11 7 6 7 8 9 10 10 11 8
10 6 4 3 2 1 6 10 15 2 7 7 8 5 10 4 6 10 13 16 15 15 15 14 13 11 9 8 10 10 10 10 11 11 11 11 12 13 13 12 11 10 10 10 11 11 12 9 10
10 11 2 4 4 6 5 5 20 9 5 5 4 5 7 9 10 13 20 18 14 12 16 16 13 11 8 8 8 9 10 12 12 12 12 13 14 15 15 15 14 14 14 14 12 12 12 12 9
3 4 3 1 10 12 4 8 8 2 5 7 6 7 5 12 8 18 20 14 12 11 18 15 11 9 7 6 8 9 11 12 12 12 12 12 13 15 16 16 17 17 17 16 15 13 13 12 11
5 3 4 5 13 16 3 8 8 4 8 3 7 5 6 7 25 23 18 13 12 17 16 14 10 6 3 6 8 10 13 15 15 15 13 13 14 16 16 17 17 18 18 18 17 16 15 12 11
3 1 3 6 15 9 4 5 9 7 6 4 7 6 5 19 21 19 18 14 15 14 10 8 5 5 9 11 9 9 10 12 13 15 16 15 15 16 17 18 19 20 22 20 20 19 17 14 12
4 2 7 11 16 14 4 8 1 12 5 3 5 4 5 10 21 21 19 19 12 8 9 9 11 12 10 9 9 11 10 10 13 13 13 14 15 16 17 18 19 21 22 21 22 21 18 17 14
3 2 10 13 12 17 3 9 9 7 3 9 9 5 6 8 23 20 19 16 14 17 15 16 15 8 5 4 5 9 12 10 11 8 7 8 10 12 13 15 17 20 20 20 21 20 19 18 16
13 7 12 16 16 16 10 5 5 6 2 2 7 7 13 29 23 20 20 22 20 21 16 15 17 10 7 1 8 11 10 12 11 8 6 8 11 13 13 15 14 18 18 19 18 19 20 18 17
10 6 19 15 17 16 10 7 7 6 8 6 5 9 23 27 26 17 13 14 16 16 17 12 8 2 4 8 5 5 7 9 10 9 13 12 13 10 14 14 13 11 14 18 18 19 19 16 17
16 15 17 18 19 17 15 10 9 10 4 2 9 11 12 12 14 14 17 17 21 19 14 6 4 2 4 6 6 8 11 7 7 11 13 13 13 9 9 10 12 12 11 14 16 19 19 18 17
19 21 21 22 19 15 7 7 12 11 7 4 10 16 10 9 10 11 11 18 19 17 14 9 5 1 5 4 9 8 12 12 14 15 13 15 16 10 10 11 11 11 14 13 18 20 20 17 16
23 22 21 22 18 10 5 9 16 17 6 2 9 11 11 10 9 18 14 23 18 18 12 7 2 2 3 7 10 11 14 17 18 15 16 14 17 13 12 10 10 11 12 15 19 20 19 18 20
22 17 19 19 16 7 8 15 16 11 7 9 8 9 9 10 10 11 18 17 19 15 12 5 0 4 6 9 13 13 13 14 14 17 15 14 12 13 12 11 14 13 15 14 19 24 23 21 19
19 21 22 18 11 14 13 17 15 10 8 10 10 10 10 10 19 18 26 22 20 14 9 5 2 6 4 6 7 11 12 13 16 15 13 11 10 12 13 12 13 11 14 16 20 22 21 19 19
17 15 16 10 12 20 10 20 14 10 9 9 10 10 10 13 14 24 31 26 22 17 11 7 2 3 4 7 10 12 12 13 14 13 11 11 12 11 11 12 11 9 13 17 19 21 19 13 20
9 12 14 16 18 22 12 19 17 11 8 8 10 9 11 10 6 23 31 28 21 16 12 7 4 3 4 9 9 10 9 11 11 10 10 10 10 10 12 12 8 7 12 21 21 21 20 17 20
13 8 13 18 23 18 14 14 8 10 10 11 9 9 9 9 14 24 32 29 23 17 12 6 4 2 6 8 9 9 8 7 7 9 9 8 8 9 8 10 8 5 12 18 21 19 19 16 17
14 14 19 22 19 17 6 20 9 10 6 7 10 9 8 10 10 25 30 28 24 18 13 7 6 3 4 8 7 4 5 3 3 8 8 6 7 9 9 8 9 9 12 16 18 18 16 17 18
17 19 22 23 19 4 15 20 13 8 6 8 10 10 4 11 13 14 24 26 23 19 12 9 5 4 3 5 5 5 9 8 9 7 7 5 5 6 9 8 9 11 11 12 14 14 15 17 16
21 20 21 19 21 16 6 5 5 5 5 7 12 8 16 21 17 14 15 25 23 17 14 10 8 3 1 5 4 8 11 10 6 3 8 6 3 4 7 6 8 11 15 18 18 19 18 11 17
21 19 21 21 16 8 1 6 4 6 10 10 13 10 15 18 15 14 13 17 22 18 15 10 8 4 4 5 7 7 9 9 7 3 7 4 3 3 6 9 8 10 12 19 21 17 13 13 15
22 16 19 21 15 7 4 3 5 4 8 13 4 11 14 17 18 16 13 19 22 18 16 13 9 6 3 4 5 10 12 10 5 5 5 6 2 6 8 11 9 9 9 14 20 19 16 15 15
25 16 16 16 11 4 6 7 9 6 8 5 3 10 16 14 13 13 19 25 21 21 18 14 12 7 2 5 8 11 11 10 8 7 6 6 2 3 10 13 11 9 8 14 18 20 20 26 22
20 14 9 3 3 6 5 4 9 9 7 7 10 13 12 15 16 15 14 11 21 23 19 15 14 9 3 7 6 8 7 8 8 7 9 9 5 8 10 13 13 12 12 14 17 16 17 17 17
19 15 7 7 4 5 6 7 10 14 10 9 14 14 13 14 14 13 14 14 22 21 20 17 16 13 7 9 7 6 6 4 6 8 9 8 9 9 7 9 14 12 13 15 17 17 18 20 19
16 12 13 5 1 2 5 6 6 7 8 10 14 13 12 13 13 13 13 19 23 22 19 13 17 13 13 9 5 4 4 4 5 6 9 8 9 9 9 10 12 14 15 16 18 19 21 20 20
22 7 7 1 8 6 5 6 6 7 9 10 11 11 10 10 12 12 12 17 24 24 19 13 15 14 13 9 8 5 5 5 6 7 9 10 10 13 11 14 17 16 18 23 24 26 27 24 20
12 12 4 7 6 5 2 7 7 12 9 14 12 12 14 13 12 12 10 21 27 24 20 14 14 15 14 10 9 7 8 6 7 10 11 10 12 12 13 15 20 21 26 28 31 28 25 23 22
14 10 7 8 6 5 5 6 9 8 12 13 13 13 10 11 11 11 11 18 24 24 21 16 13 18 14 12 10 8 10 7 7 11 11 10 14 13 14 16 19 24 25 29 30 28 27 28 24
Wind_Direction
203 195 192 252 29 139 261 291 327 39 64 94 87 83 93 102 94 178 142 114 138 157 169 170 182 191 200 212 220 225 228 233 234 236 239 244 255 266 269 277 286 284 282 275 269 264 269 263 267
193 184 238 268 171 289 282 319 310 126 150 124 122 135 90 63 93 128 128 149 154 155 170 179 184 193 200 215 221 226 233 238 240 240 244 241 249 254 260 264 274 274 269 269 267 262 259 269 257
197 215 319 192 216 218 245 272 328 348 133 142 151 97 113 141 121 144 144 147 146 167 192 182 188 187 202 220 229 235 241 242 240 243 240 244 248 251 251 254 260 267 267 265 265 261 257 260 263
216 277 280 232 257 263 250 265 275 336 314 175 128 111 55 157 118 142 152 151 174 174 179 165 177 185 205 232 241 240 242 242 246 241 243 247 252 253 254 256 259 259 264 264 260 257 249 253 259
232 259 231 269 266 268 338 268 248 345 312 97 138 110 106 95 124 143 144 150 131 133 154 158 166 173 225 267 271 258 250 253 253 254 250 248 249 251 253 255 256 257 256 256 255 248 243 244 253
296 163 298 277 287 310 230 58 353 326 323 19 53 108 162 135 140 150 158 154 140 127 136 158 177 250 281 274 268 257 257 261 270 275 267 260 257 256 256 256 256 256 255 252 249 243 236 237 241
214 298 264 279 291 311 314 61 181 279 244 97 126 107 149 156 158 158 154 149 143 169 182 211 232 245 250 252 238 235 241 269 288 289 282 275 270 268 266 263 260 255 251 251 243 236 226 229 233
230 227 276 278 286 287 299 181 199 229 131 174 146 148 185 206 158 152 160 178 192 195 201 207 213 210 201 208 243 263 259 269 273 275 281 289 286 291 277 271 265 255 249 247 244 230 220 223 228
249 253 262 267 277 280 320 342 326 332 204 215 188 146 157 156 160 160 175 181 196 194 192 165 147 148 149 35 309 265 272 282 261 259 263 258 282 285 274 268 286 260 249 241 235 220 213 220 225
230 236 252 259 268 279 302 324 319 349 308 258 80 96 142 156 167 168 182 187 199 156 146 150 148 170 292 322 291 311 294 271 250 262 287 283 289 286 275 271 277 270 256 231 222 215 208 215 221
238 240 253 257 261 275 286 327 307 305 312 342 168 150 156 169 168 182 196 199 139 133 122 104 65 10 318 318 285 298 315 236 253 286 301 281 288 290 294 292 278 269 263 233 211 207 204 206 219
248 242 246 256 260 260 249 291 292 275 246 300 124 163 163 171 184 184 191 147 133 124 119 109 96 41 315 269 295 294 287 285 291 294 285 276 280 285 280 277 271 256 252 237 215 200 207 212 218
244 247 252 259 266 243 255 263 264 267 259 147 147 149 172 187 187 197 180 135 128 121 113 111 104 318 256 294 290 286 281 282 283 284 279 282 268 259 282 277 279 263 240 233 210 204 211 217 214
256 260 263 259 268 255 259 264 262 252 241 158 168 169 174 182 183 149 139 138 130 126 122 123 7 257 273 274 281 286 291 291 286 276 280 301 265 254 277 267 264 268 232 222 218 211 211 218 222
269 272 273 270 271 267 255 259 256 247 212 203 197 204 201 187 164 173 163 150 141 133 141 156 303 253 263 298 300 300 299 285 287 285 279 270 253 258 267 271 268 267 233 217 217 216 214 218 226
280 281 266 260 271 267 242 258 245 234 214 236 216 210 193 210 188 177 160 143 139 128 142 155 202 263 292 305 306 303 303 304 303 288 280 265 257 260 266 267 271 260 220 203 206 210 212 217 205
257 257 267 267 249 261 243 253 251 195 220 235 232 221 213 214 148 149 151 147 144 145 135 141 182 278 284 314 315 310 309 310 319 317 285 274 262 251 261 261 268 245 214 199 206 208 212 206 205
231 257 255 256 256 256 261 304 192 209 204 231 247 229 224 182 159 146 144 144 143 143 148 165 234 256 295 317 314 309 319 325 331 344 310 288 258 248 258 269 251 223 187 194 200 206 207 219 203
233 241 249 255 253 246 337 270 257 219 204 225 244 247 234 156 137 137 142 144 141 141 147 171 213 253 295 327 331 330 327 328 323 334 349 310 270 248 231 260 240 200 189 187 198 198 208 209 193
243 243 258 272 277 174 219 253 247 203 213 223 235 248 229 124 132 132 137 143 145 144 150 180 208 191 335 330 345 331 319 296 294 318 340 311 280 251 219 247 230 192 168 180 194 211 199 197 179
236 235 248 259 278 285 264 305 303 259 246 273 252 222 141 146 147 148 143 146 149 153 160 172 184 172 99 8 4 353 1 341 308 330 354 324 231 207 203 198 195 182 173 184 188 194 188 160 172
238 229 235 251 261 262 276 288 293 309 300 297 282 137 143 150 150 149 147 147 152 153 158 175 159 182 149 37 31 34 11 343 345 13 0 23 169 183 163 162 181 187 176 182 178 175 174 170 151
239 227 229 239 249 245 276 291 249 252 292 283 196 148 156 155 153 155 145 145 155 159 162 159 162 167 164 77 34 32 14 12 31 38 28 16 355 173 180 161 168 179 161 153 164 165 162 167 170
230 236 239 239 238 236 218 186 265 235 236 186 138 126 148 138 136 131 142 149 155 159 156 162 163 167 174 97 59 38 35 45 53 43 33 27 14 165 172 171 169 174 148 160 168 169 164 165 187
219 219 236 290 237 213 216 285 254 260 233 171 139 126 135 137 139 141 145 144 147 157 160 170 165 163 172 108 74 58 57 58 49 27 36 27 61 139 157 176 176 169 161 165 179 178 173 167 168
223 200 200 211 184 245 243 240 258 228 216 129 140 139 131 133 143 144 143 143 152 162 163 178 171 160 160 121 105 76 54 65 55 48 41 58 83 128 137 170 184 170 168 168 170 172 171 169 167
232 206 192 173 272 209 229 230 340 119 129 120 130 127 136 141 144 145 145 147 157 163 168 185 168 161 145 129 127 125 67 71 57 66 52 90 97 114 128 146 159 169 170 158 156 150 154 160 154
210 185 153 79 199 250 294 297 226 155 174 125 126 136 135 138 140 144 145 148 163 166 169 168 158 155 147 148 158 138 105 93 69 74 68 96 93 98 113 134 142 145 150 145 143 145 151 150 141
222 211 144 135 151 174 235 273 232 168 150 142 144 148 147 151 144 146 145 152 162 164 164 159 155 156 144 134 126 128 108 91 71 95 77 99 107 96 109 127 136 138 143 144 138 139 138 129 134
214 180 155 179 217 201 182 260 150 136 143 140 146 148 140 143 143 147 143 145 153 162 165 166 172 158 152 154 141 128 116 102 92 99 82 101 99 100 99 115 131 142 143 149 144 140 138 134 134
Height
783 784 786 789 812 805 813 786 756 760 757 743 740 751 768 762 772 805 773 774 778 781 784 787 788 790 791 792 793 795 796 797 797 798 799 799 800 801 802 803 803 804 805 805 806 806 806 806 806
783 784 787 787 813 826 810 772 772 755 746 739 740 745 759 773 757 766 770 772 774 778 781 783 785 786 788 789 791 792 794 795 795 795 796 796 797 799 800 800 801 802 803 804 804 804 804 804 805
784 783 793 796 806 817 800 774 757 746 739 739 743 738 754 765 758 762 765 768 770 773 776 779 783 784 787 789 790 791 791 792 793 793 793 793 794 795 796 797 798 799 800 800 800 800 801 802 802
786 783 783 802 805 780 765 757 753 748 737 735 739 756 749 750 753 759 764 767 769 771 775 778 782 783 785 787 788 789 789 790 790 791 790 791 791 792 793 793 795 795 796 797 797 797 798 800 800
784 783 803 802 790 769 753 749 744 749 745 740 736 759 759 753 754 758 762 766 767 771 774 777 779 781 782 784 785 785 786 787 788 787 787 787 788 788 788 790 790 790 791 792 793 794 795 796 797
792 781 810 811 784 760 748 744 748 746 743 745 750 758 762 755 755 758 760 764 766 768 772 774 775 777 779 781 781 782 782 784 784 783 782 782 783 783 783 784 785 785 786 787 788 790 791 793 794
795 801 804 796 783 769 755 745 750 751 744 747 738 756 760 754 754 756 758 762 764 767 768 770 772 774 775 777 778 779 779 780 780 779 778 778 778 778 778 779 780 780 781 781 782 785 788 790 791
780 790 797 787 786 776 746 737 736 738 742 729 730 754 767 751 752 754 757 759 761 763 765 764 767 771 773 775 775 775 775 776 776 775 775 775 775 774 773 773 774 775 775 776 778 780 784 786 788
771 800 798 787 780 765 744 748 730 725 732 729 728 732 734 743 748 751 753 756 758 760 762 766 766 768 771 772 772 773 772 771 773 772 772 772 771 771 771 771 771 770 771 772 774 777 780 783 785
776 793 781 763 757 757 746 744 739 737 737 735 734 733 738 742 744 747 752 752 754 760 764 764 763 765 768 770 771 771 770 769 770 770 770 769 769 768 768 767 768 767 767 767 770 773 777 781 782
764 778 759 753 746 741 742 742 732 739 744 733 738 737 736 738 742 744 746 748 752 756 758 761 760 763 766 767 769 769 768 768 768 768 767 767 767 765 765 764 764 765 765 766 769 771 775 777 779
768 752 748 743 736 737 741 731 738 735 732 721 725 729 732 737 739 741 745 749 751 754 756 759 759 762 765 766 767 767 766 766 765 764 764 764 764 762 762 762 762 762 764 765 766 769 772 774 776
758 749 739 732 731 732 727 734 734 732 719 718 720 725 730 733 735 737 740 746 749 751 754 756 760 762 763 764 764 764 763 762 761 760 761 761 760 759 759 759 759 760 761 763 764 767 769 771 773
746 741 736 730 729 727 731 729 727 722 712 717 718 722 724 726 730 736 740 744 746 750 752 755 760 761 761 762 762 761 760 759 758 757 757 757 756 757 757 756 757 757 758 759 761 764 766 769 771
741 748 736 730 726 727 720 736 731 715 710 716 718 718 718 720 722 725 730 736 741 746 750 755 759 759 760 760 760 759 758 756 754 754 754 755 754 754 754 754 754 754 754 757 759 762 766 768 768
753 748 756 733 725 717 726 743 719 708 712 717 713 712 714 714 714 718 724 730 737 742 748 754 757 758 759 759 759 757 755 753 752 751 751 751 751 751 751 752 751 751 751 754 757 760 764 765 766
754 767 758 740 718 719 722 730 709 701 705 714 712 710 708 707 712 715 720 727 734 739 745 752 755 757 758 758 757 755 753 751 750 748 747 747 747 748 748 748 749 748 748 751 755 758 761 763 765
765 761 747 742 718 716 722 720 705 702 704 708 708 705 702 702 709 713 719 726 732 737 743 750 754 756 756 756 754 753 750 749 748 746 745 744 744 744 745 746 747 747 747 750 754 757 760 762 765
741 745 744 725 708 719 720 718 708 700 700 705 705 702 699 702 707 713 719 725 731 735 742 748 752 754 755 754 753 751 749 748 746 745 743 741 741 741 743 744 745 746 748 751 754 757 760 761 764
734 741 740 722 707 711 717 718 707 697 697 696 695 696 696 705 711 715 720 724 729 734 740 746 751 753 754 753 752 750 748 746 745 743 741 739 739 738 740 741 742 745 748 751 755 757 759 762 764
729 735 734 734 711 701 711 722 708 692 687 686 684 683 693 700 708 713 718 723 728 733 738 745 749 751 752 752 750 749 747 745 743 742 740 738 737 737 738 740 741 744 748 749 754 757 759 761 764
734 711 716 719 725 746 701 756 717 704 702 690 682 687 692 698 704 709 715 721 726 732 738 744 748 750 751 751 750 748 747 745 742 741 740 738 737 738 738 740 742 744 748 751 753 756 758 762 765
713 699 705 708 719 728 719 744 725 702 710 697 682 683 690 693 699 707 714 720 726 732 738 743 747 749 750 749 749 748 746 744 742 741 740 738 737 737 739 741 742 745 748 750 752 755 758 761 764
687 700 702 704 714 752 727 736 724 719 702 688 676 681 688 695 702 708 714 719 725 732 737 742 746 748 749 749 749 747 747 745 743 742 740 738 737 737 738 741 743 746 749 751 752 755 759 761 765
687 709 740 757 750 762 711 727 722 695 684 679 687 687 691 694 701 709 714 720 725 731 736 741 744 747 748 749 749 748 748 746 745 743 741 739 738 737 739 741 743 746 749 751 753 755 759 762 764
686 696 727 759 759 742 709 732 709 677 668 673 675 682 688 696 701 707 712 718 724 730 735 739 742 745 747 748 749 748 748 747 745 744 742 740 738 738 740 741 743 747 750 751 754 756 759 762 765
678 692 680 713 708 734 721 695 680 671 676 676 682 685 693 697 702 706 711 717 723 729 733 737 741 743 746 747 748 748 749 747 746 746 744 741 741 740 740 741 743 746 749 752 755 758 760 762 765
658 661 699 715 743 758 726 715 715 689 684 681 688 692 695 698 702 705 710 716 722 727 732 736 739 743 745 746 748 748 749 748 747 747 746 745 744 743 742 742 744 747 751 754 759 761 764 766 769
661 670 677 694 714 746 749 735 677 676 675 680 685 686 691 696 700 704 709 715 720 726 731 735 739 742 744 746 747 748 749 749 749 749 748 747 747 746 744 745 747 749 752 757 761 765 767 770 772
642 661 674 695 718 711 724 722 660 670 671 673 680 683 689 694 698 703 707 714 719 724 729 734 738 741 743 746 747 749 750 750 751 751 750 749 748 749 748 748 750 752 756 760 764 767 771 773 776